RH
45 46 44 40 37 35 34 34 33 29 28 26 24 26 26 24 22 20 18 17 19 21 19 16 15 13 11 8 7 6 6 6 6 5 5 5 5 4 4 4 5 7 11 15 15 8 4 5 3 4 4 2 3 3 4 7 11 21 25 21 29 54 76 74 69 81 88 86 85 85 87 91 93 92 92 90 86 91 97 90 76 70 74 82 86 88
43 45 40 38 38 40 42 42 41 37 33 31 29 28 28 26 23 22 20 18 18 20 21 19 18 17 15 12 10 7 7 6 6 5 5 5 4 4 4 4 6 8 12 15 12 6 5 5 4 5 3 3 4 0 7 22 28 33 33 29 49 79 88 87 88 88 85 83 82 84 88 93 99 100 96 86 76 80 96 95 80 75 81 88 91 92
40 41 38 39 42 45 46 45 44 42 38 35 33 31 30 28 25 23 21 18 18 19 21 21 19 20 19 17 13 9 7 6 6 6 5 5 4 4 4 4 7 8 11 13 9 5 5 6 5 4 3 3 3 1 14 43 53 48 41 33 51 82 87 82 89 90 83 79 77 80 85 90 97 98 90 79 69 69 87 95 84 82 90 93 95 95
37 39 40 43 44 45 46 47 46 44 41 37 36 34 31 30 27 24 21 19 17 17 20 21 21 21 21 19 15 12 8 6 7 6 5 5 4 4 4 5 7 9 10 9 6 6 6 6 5 4 4 2 3 3 9 36 57 50 37 26 35 69 89 87 88 86 78 74 74 76 78 80 84 84 75 70 66 64 79 92 88 90 97 96 93 90
35 39 43 44 44 45 46 47 47 45 41 37 37 36 33 32 28 25 23 20 17 17 18 20 21 20 20 19 15 13 10 7 6 6 5 5 4 5 4 5 7 7 8 6 6 6 6 6 5 5 4 3 3 3 4 22 37 30 23 34 52 73 89 90 85 80 75 73 73 74 71 70 72 72 68 70 74 74 81 92 94 96 98 93 87 87
32 38 43 44 44 46 46 46 46 44 41 38 37 37 36 34 30 27 25 22 19 17 16 18 19 18 18 17 16 15 12 8 6 6 6 5 5 5 4 6 7 6 6 6 6 6 6 6 6 5 3 4 2 3 21 35 31 30 39 59 78 79 77 79 77 76 76 76 76 70 64 67 69 67 74 85 90 91 92 95 97 99 97 93 93 95
30 36 42 44 44 46 46 46 45 44 42 40 39 38 37 35 32 30 27 25 21 17 16 17 17 16 16 16 15 15 14 11 7 6 6 5 5 5 5 6 6 6 6 6 6 5 7 6 6 6 3 5 2 3 34 50 38 46 60 64 67 60 60 69 73 74 77 78 73 59 55 67 70 69 83 98 100 99 97 97 100 100 96 94 98 100
28 35 41 42 43 45 45 45 44 44 42 40 40 41 39 37 34 33 32 28 23 19 18 17 16 15 15 15 15 16 15 12 8 6 6 5 6 5 6 7 6 6 5 5 6 5 7 6 6 6 3 5 2 6 37 50 41 48 54 51 48 49 60 69 68 70 73 72 65 59 65 79 82 81 86 93 96 96 94 97 101 99 96 95 97 99
27 32 40 41 42 44 44 44 44 45 42 42 46 45 42 41 39 37 36 32 26 22 19 16 15 15 13 14 17 16 15 13 9 7 6 6 6 6 7 7 6 6 5 6 6 6 7 7 6 5 5 5 1 15 44 46 38 44 46 47 50 55 66 65 62 67 68 64 65 74 85 90 92 90 87 89 92 94 94 98 101 95 92 96 99 95
24 28 36 38 39 42 43 45 47 47 44 46 52 50 46 44 42 40 39 35 30 24 19 16 15 13 12 14 16 15 13 11 10 8 7 6 6 7 7 7 7 6 6 6 6 7 7 7 7 5 5 7 3 22 49 44 40 50 48 47 50 52 57 56 60 67 66 66 70 79 86 90 94 93 94 97 93 92 94 94 97 94 88 92 96 88
21 25 31 35 36 40 44 46 49 49 48 52 56 54 50 48 44 43 41 37 32 25 19 17 15 14 13 12 13 12 10 10 12 10 8 7 7 7 7 7 7 6 6 7 6 7 8 7 8 5 8 13 11 22 42 47 53 54 42 37 41 48 54 56 61 62 64 73 78 84 89 90 92 92 97 100 92 89 90 89 94 95 93 97 95 81
21 22 28 34 34 38 43 47 50 51 50 55 59 56 54 52 48 46 43 38 32 25 20 18 17 16 13 11 11 10 12 14 15 13 10 8 8 8 8 7 7 7 7 7 7 7 8 8 7 7 12 18 20 24 34 44 50 44 35 34 41 52 58 57 59 58 60 67 75 85 89 84 81 83 90 94 90 89 88 85 84 85 94 99 86 69
20 21 27 31 31 36 42 45 50 53 53 56 60 59 56 53 49 45 42 36 29 23 22 20 18 16 12 9 11 12 14 16 15 14 12 9 10 10 9 8 7 8 8 8 8 7 8 8 7 8 15 20 22 26 30 33 35 35 36 38 45 54 54 52 58 63 65 67 74 82 81 78 76 74 83 89 89 90 85 77 76 84 95 89 71 61
20 22 25 28 30 35 40 44 47 48 49 52 56 54 50 47 43 40 37 31 27 24 23 22 19 16 12 10 11 12 13 15 16 16 13 11 12 11 10 11 12 12 11 9 8 8 8 9 7 9 16 20 19 22 26 25 28 34 39 44 49 49 47 51 57 63 68 72 80 82 72 70 73 72 80 86 85 82 74 72 83 93 90 73 63 60
20 21 25 28 30 34 37 41 44 46 48 49 53 53 48 42 37 34 34 30 27 25 22 22 20 15 13 11 11 12 14 16 17 17 15 13 13 12 11 14 18 17 13 10 8 8 9 9 8 9 17 20 17 19 23 24 28 36 44 50 50 45 46 53 56 60 67 69 74 76 68 69 75 77 81 84 82 79 78 84 91 86 74 64 60 54
21 20 25 29 29 33 37 41 48 55 59 57 57 58 50 43 39 35 34 30 27 26 23 21 19 14 13 12 12 13 15 17 18 19 16 13 12 12 11 13 15 14 11 10 9 9 9 9 8 10 18 20 16 18 22 25 31 40 48 50 49 53 56 53 55 63 72 74 71 67 65 73 82 82 82 84 87 90 92 91 82 70 64 59 52 45
21 21 22 25 27 32 37 44 51 57 61 60 56 53 46 44 44 40 36 33 30 28 24 21 19 16 14 13 13 14 15 17 20 20 18 14 13 12 12 12 12 11 10 11 11 10 9 9 9 13 20 19 16 19 23 28 34 39 46 45 46 58 62 60 69 76 75 78 76 67 63 72 83 83 82 87 93 96 89 78 67 61 57 51 45 42
22 22 21 22 25 30 38 49 59 62 63 60 52 48 49 49 47 43 39 35 32 28 24 21 19 17 15 14 13 14 15 17 19 21 20 16 13 13 14 13 11 11 12 14 13 12 11 9 11 16 20 19 18 22 25 29 33 36 41 42 46 53 55 64 79 82 82 86 82 74 68 70 78 80 84 93 96 88 75 65 61 57 51 46 43 38
22 23 22 22 24 31 40 49 61 66 65 61 55 53 54 50 45 43 40 35 32 28 24 22 20 18 16 14 14 14 15 17 19 22 21 18 15 15 15 13 12 12 14 15 14 14 16 17 20 21 21 21 22 25 27 30 33 37 40 43 49 51 53 68 75 71 83 93 82 76 74 69 69 75 85 93 86 72 64 62 59 53 48 44 37 30
23 23 23 24 26 34 43 45 52 60 60 60 60 57 55 50 45 42 39 35 31 28 25 22 19 18 16 15 14 15 16 18 21 22 21 19 16 15 16 14 13 14 16 16 16 17 21 25 25 22 21 24 26 27 29 33 37 42 45 47 52 50 51 71 81 73 76 77 67 68 73 67 64 70 79 80 70 63 63 61 56 50 44 37 29 27
25 23 23 25 27 32 38 40 46 54 55 55 53 51 52 52 48 43 38 34 30 28 26 23 19 17 17 17 16 16 17 19 22 23 22 20 18 16 17 15 14 15 17 17 20 23 24 23 21 20 23 26 27 27 29 35 40 43 46 48 52 47 39 52 73 75 67 55 48 56 67 67 64 65 68 67 63 63 62 56 50 44 37 29 27 29
26 23 23 24 24 27 31 36 48 55 54 52 49 46 48 49 47 41 35 32 30 28 26 23 20 18 18 18 18 17 18 19 22 24 24 22 20 18 16 16 15 15 17 19 24 27 25 20 18 20 25 27 27 27 30 35 39 41 46 50 50 45 35 34 45 52 51 45 40 49 63 67 66 66 66 65 64 63 58 51 45 38 30 26 27 31
27 23 22 22 21 24 29 34 43 53 56 58 55 51 49 46 41 37 33 31 31 29 26 23 20 19 19 19 20 19 18 19 22 25 26 24 21 19 17 17 16 16 20 22 23 26 24 19 19 23 25 27 27 27 29 33 37 40 47 51 47 39 33 31 33 37 42 44 44 52 63 67 68 69 68 66 66 62 55 47 40 32 27 26 28 33
28 24 22 22 20 20 26 32 40 52 59 58 54 52 49 43 37 36 36 35 34 31 27 24 22 21 20 20 21 21 18 18 22 25 26 25 22 20 18 17 18 21 23 22 21 23 20 18 22 26 26 27 28 29 31 35 38 41 46 49 44 36 30 29 32 35 40 45 52 63 69 69 70 70 69 68 65 59 51 44 35 28 26 28 30 37
32 29 23 21 20 18 23 30 36 45 48 45 43 45 45 45 44 42 40 37 34 31 28 26 24 23 23 22 21 22 18 18 23 26 26 25 23 21 19 19 22 24 23 22 23 21 18 20 27 32 34 36 36 36 37 39 40 42 45 45 40 33 29 29 31 36 43 50 62 72 73 71 70 69 68 66 61 55 49 41 32 27 28 30 33 40
37 33 25 20 19 17 18 23 26 32 35 37 42 45 47 49 48 44 40 36 31 30 29 27 25 26 28 26 23 22 19 19 23 27 27 25 23 20 20 22 25 23 23 28 32 29 26 30 35 38 44 46 45 44 43 43 43 42 43 43 38 31 27 28 33 41 49 57 68 77 77 73 71 69 67 63 58 53 47 39 32 29 31 33 35 40
39 33 26 21 18 16 17 18 21 27 34 40 44 46 49 51 49 46 41 36 32 30 29 27 28 31 32 32 31 25 20 20 24 27 27 25 24 22 22 24 24 25 31 39 44 41 35 31 29 31 39 46 48 47 45 43 40 39 41 39 34 29 26 28 35 46 58 65 72 79 81 75 72 69 65 61 57 53 47 40 34 33 34 35 37 39
38 33 27 23 21 18 18 17 19 25 31 38 43 45 47 47 48 44 38 33 32 30 28 27 31 35 35 41 44 35 24 23 26 28 29 26 24 23 22 25 27 32 39 45 45 38 30 24 21 21 27 38 46 45 40 37 33 31 34 34 31 28 27 28 33 46 63 74 78 82 84 82 78 73 67 62 59 55 47 41 37 37 37 38 38 38
35 34 29 26 24 21 18 16 17 21 25 33 42 46 46 44 42 39 35 34 32 30 30 29 32 39 44 51 55 44 32 31 32 32 31 29 27 26 26 29 32 33 35 40 41 36 32 29 25 21 20 29 41 43 36 34 33 30 30 31 29 28 28 29 31 39 56 74 84 86 87 87 85 79 71 65 62 57 49 43 43 42 40 39 39 40
33 35 31 27 24 22 19 15 15 19 22 28 35 40 43 42 40 37 36 35 33 32 32 32 36 45 51 57 61 50 37 38 42 38 34 33 31 30 31 33 33 30 30 34 36 34 34 32 26 23 21 24 36 43 37 33 34 33 32 33 31 28 29 31 31 33 40 56 74 84 86 88 88 83 74 68 65 61 52 48 49 48 43 41 42 48
33 45 44 36 29 23 19 16 15 16 19 25 33 37 40 40 40 39 37 36 35 34 32 34 39 45 49 56 64 58 43 40 48 50 45 42 38 35 35 34 31 32 34 32 29 27 28 28 25 24 22 22 33 44 42 36 35 34 35 35 34 30 28 28 29 30 31 37 51 65 75 83 86 83 77 72 69 65 56 51 49 47 44 43 48 56
34 55 61 49 36 25 20 17 14 15 23 31 36 37 36 35 34 35 35 36 35 34 33 34 38 44 51 57 66 67 54 44 49 56 55 50 46 44 42 38 38 40 38 33 30 29 28 27 25 24 22 22 31 45 49 43 38 37 37 36 35 32 29 27 27 28 29 31 36 44 56 69 76 78 78 75 73 69 62 54 48 46 45 48 55 60
38 62 66 52 37 28 22 18 19 23 28 28 28 31 33 34 35 36 37 37 36 35 35 33 36 50 61 64 68 69 63 54 52 55 56 55 54 51 46 44 45 43 36 31 30 29 28 27 26 25 24 24 30 42 49 46 41 38 37 37 36 33 31 29 27 27 27 27 29 33 42 53 60 66 70 69 69 71 68 59 50 47 48 52 56 58
64 82 77 57 40 31 25 24 26 26 23 23 27 32 35 37 38 39 38 39 37 37 36 33 42 63 75 74 72 70 65 61 57 55 58 58 53 48 46 45 41 35 30 29 28 28 29 31 31 31 31 31 33 38 43 43 41 38 37 37 37 35 33 31 29 29 27 27 29 30 34 40 46 53 58 58 58 63 65 60 52 49 51 54 56 58
79 87 82 64 43 32 29 27 24 21 22 30 35 36 37 39 41 41 41 41 39 39 39 36 44 68 81 77 75 76 73 67 62 60 59 53 49 52 51 43 36 32 32 33 34 37 40 40 39 39 39 39 39 39 40 40 40 40 39 39 38 37 36 34 32 31 30 31 31 32 35 38 39 44 49 47 47 52 54 54 52 50 51 53 55 57
80 81 82 69 47 37 33 26 23 27 32 36 37 37 38 40 41 42 42 43 42 41 42 40 45 61 74 74 74 77 77 72 67 64 57 50 53 59 52 39 33 33 34 37 41 45 46 45 42 40 39 40 41 41 42 42 42 42 42 40 38 37 35 33 32 31 30 30 29 28 33 36 34 37 40 39 41 46 49 50 51 52 52 53 56 59
88 84 84 70 51 43 38 32 36 43 42 39 38 38 39 40 39 40 43 48 50 47 47 48 49 55 62 68 70 70 73 75 70 61 54 53 55 53 43 34 32 34 39 45 50 52 52 50 47 44 44 45 46 47 47 46 46 45 43 41 38 37 36 33 32 31 29 28 26 24 28 41 54 59 54 50 51 50 48 51 54 54 54 56 59 60
91 85 83 70 54 50 47 44 47 50 48 44 42 39 38 41 41 40 48 59 62 58 57 58 57 58 61 63 64 65 70 74 69 58 55 57 53 45 41 39 38 43 52 58 59 58 56 55 52 51 51 51 49 49 47 47 47 45 44 42 39 37 36 34 33 31 29 27 26 24 27 43 66 77 71 68 70 64 55 56 60 61 62 62 62 64
92 85 80 70 60 58 57 52 52 55 55 52 48 44 41 41 45 48 54 64 67 66 66 65 61 62 64 65 68 70 68 68 69 65 60 60 57 48 43 42 44 50 58 63 64 61 56 54 52 50 50 50 50 49 48 48 49 48 46 45 43 41 41 40 38 37 35 33 33 33 31 35 53 70 74 76 82 78 67 63 64 67 70 70 69 73
96 86 80 76 70 65 62 59 56 58 60 58 56 55 50 48 54 59 60 63 68 69 69 67 65 64 65 69 76 76 66 64 73 75 64 59 59 54 46 42 43 49 55 59 63 64 60 59 57 52 49 50 50 49 49 49 50 50 49 48 47 45 45 45 44 43 42 41 40 39 37 37 47 61 70 78 84 83 81 79 75 73 77 81 82 79
99 90 84 83 82 75 69 65 61 61 68 71 69 66 63 59 60 62 61 63 69 71 71 70 68 67 67 70 76 77 70 66 70 71 65 61 60 55 49 45 43 47 51 51 51 55 59 60 58 53 51 53 54 54 53 53 52 51 50 48 47 46 45 44 43 42 42 42 42 41 40 41 45 52 66 81 81 75 80 87 82 76 81 88 87 79
94 95 89 85 84 84 78 70 66 69 76 81 81 78 71 66 65 67 68 69 70 71 72 72 72 70 68 67 70 73 74 72 69 67 64 62 60 56 52 48 46 46 47 45 44 47 50 51 52 53 53 54 56 57 56 56 57 55 53 51 49 48 47 45 44 43 41 40 41 40 40 42 42 45 57 67 61 52 56 64 62 62 68 74 74 72
81 90 93 88 85 89 88 78 71 72 75 79 86 88 80 72 73 76 76 74 73 72 72 72 74 74 72 69 68 69 71 74 75 73 66 61 60 59 56 53 52 49 47 46 45 46 46 46 50 58 61 59 56 55 56 59 62 60 58 55 52 50 48 45 44 44 42 40 40 39 40 42 43 43 47 49 47 45 46 48 52 56 62 71 77 78
83 86 90 89 83 83 90 87 78 75 76 77 82 89 88 81 78 79 79 77 74 73 73 72 72 74 75 74 71 68 68 71 73 73 70 66 63 62 60 60 59 56 54 51 49 49 50 49 50 56 61 60 57 55 55 58 61 60 58 55 51 47 44 43 42 41 40 40 40 40 41 44 45 46 47 48 49 50 50 52 58 64 69 78 84 84
94 90 89 90 83 75 79 85 85 82 81 82 84 88 91 89 83 80 80 79 75 73 73 73 72 72 74 73 69 66 68 71 71 70 69 68 66 65 64 64 63 60 57 54 51 52 53 52 51 52 54 55 54 53 51 52 54 54 52 48 45 42 41 41 41 40 40 40 40 40 41 43 45 46 48 50 52 53 55 56 58 64 69 70 73 80
95 91 92 95 94 85 79 84 90 87 81 80 81 83 86 89 88 84 81 78 77 75 73 72 72 72 72 71 68 68 70 72 72 70 69 68 67 66 65 63 61 59 56 54 54 55 55 54 54 54 54 55 55 53 53 52 51 49 48 46 44 43 42 42 42 42 42 42 41 42 42 43 45 46 49 53 54 55 58 57 55 61 65 64 69 80
98 97 97 98 98 95 90 87 88 87 83 80 78 77 79 81 83 84 84 81 78 76 74 72 71 70 70 71 70 71 73 73 72 71 70 68 67 66 65 63 61 59 58 58 59 59 58 58 57 56 55 55 55 54 53 52 51 51 50 48 47 45 43 43 42 43 43 43 43 43 44 44 47 48 51 54 56 57 58 57 56 61 61 59 66 72
90 95 99 98 96 95 94 91 86 82 83 85 81 78 78 77 76 77 80 81 80 79 78 76 73 71 69 69 69 69 71 71 71 70 70 69 68 67 66 65 64 63 63 62 62 62 62 62 60 58 56 54 54 53 52 52 52 52 50 48 46 45 43 42 42 42 43 44 44 46 46 46 47 48 51 56 59 61 61 59 59 61 60 58 61 62
76 84 89 92 92 89 89 93 89 82 81 83 85 85 83 80 80 80 80 80 81 81 80 78 76 74 72 70 69 69 68 69 69 69 68 67 66 65 65 65 65 66 65 65 65 66 65 62 59 58 57 56 56 56 55 55 54 51 48 45 43 41 40 39 39 40 41 42 43 45 47 48 48 50 53 59 63 65 63 61 60 61 61 62 62 58
73 77 79 81 82 82 84 87 87 87 88 86 86 91 91 88 87 86 84 83 83 83 83 81 78 76 74 70 68 67 66 67 67 67 67 67 66 65 65 64 64 64 64 63 63 62 62 62 62 64 65 65 64 62 59 56 53 48 45 42 40 38 37 37 38 40 41 42 44 46 49 52 53 55 57 61 64 64 63 62 62 62 66 73 75 68
75 76 74 73 72 74 78 80 79 84 89 83 80 89 96 95 92 87 83 81 80 80 80 79 79 79 79 78 77 75 71 68 65 64 64 64 64 64 64 62 62 60 60 60 62 64 67 70 71 73 74 71 67 61 56 53 50 47 45 43 42 41 42 43 45 47 49 51 52 52 53 55 56 56 57 60 64 66 65 63 63 66 73 80 79 74
Wind_Speed
58 60 62 62 61 61 62 63 63 63 63 64 64 64 64 62 60 57 53 52 51 51 51 51 50 50 48 45 43 40 38 36 34 32 30 28 26 26 26 25 24 22 19 17 16 15 13 11 9 8 10 12 12 13 17 17 16 17 17 17 21 21 19 18 18 17 17 16 16 18 19 20 21 21 21 20 19 20 21 22 21 19 19 18 18 18
58 60 60 58 57 57 59 60 60 61 62 62 62 62 62 61 59 55 50 49 50 51 51 51 50 49 48 45 43 42 40 37 34 31 28 27 27 27 27 25 22 21 19 17 16 15 13 10 9 9 11 12 12 14 18 16 12 14 15 16 21 21 20 20 18 17 17 16 16 18 19 20 21 20 20 20 20 20 21 21 20 19 19 19 18 17
58 58 56 56 57 57 57 58 58 59 60 60 60 61 61 59 57 54 49 48 49 50 51 51 51 49 47 45 43 43 41 38 35 31 30 29 28 28 27 24 21 21 21 19 18 15 12 10 9 11 12 12 13 15 17 15 13 14 13 14 20 22 22 21 19 19 17 15 15 17 19 19 19 20 21 21 22 21 21 20 19 18 19 19 19 17
56 56 56 57 58 57 56 57 57 58 59 59 59 59 59 57 56 54 50 47 49 50 50 51 51 50 47 46 45 44 43 41 37 35 33 32 30 29 27 23 22 23 23 21 18 14 11 10 10 12 12 12 14 16 17 17 18 16 14 17 21 22 21 19 18 18 16 16 16 17 18 19 19 20 21 22 23 22 21 20 19 19 20 20 19 18
54 56 57 56 56 56 56 57 57 58 58 58 57 57 58 56 54 52 48 45 46 48 49 50 51 51 49 48 47 46 45 43 40 37 36 33 32 30 26 22 22 24 24 21 18 15 12 10 11 12 12 13 14 16 18 19 19 17 18 21 21 20 20 18 16 16 17 18 18 18 19 19 19 19 20 22 21 19 19 20 20 20 19 18 17 16
54 55 55 54 55 56 56 57 57 57 57 57 56 56 56 54 52 51 47 44 45 48 49 50 51 52 50 49 48 46 46 44 41 39 36 34 32 30 25 21 24 26 24 21 18 16 13 11 11 12 12 14 14 17 20 20 18 18 20 21 20 21 21 18 16 17 19 20 20 20 20 20 20 18 19 21 19 17 18 20 19 19 18 16 15 15
55 54 53 53 54 54 54 55 55 55 56 55 54 53 54 53 52 50 47 44 46 48 49 49 50 51 50 50 48 47 46 44 42 40 37 35 33 30 24 23 26 25 22 21 19 16 13 12 13 14 14 15 15 18 21 20 18 19 20 20 22 23 22 18 17 18 20 20 20 21 21 21 20 19 20 21 20 18 18 19 18 17 17 15 15 16
54 54 54 53 53 53 53 53 53 54 55 53 51 51 52 52 51 50 46 44 45 47 48 48 49 50 50 49 48 46 46 45 43 41 38 36 34 29 24 25 27 25 23 22 20 17 15 15 15 15 15 15 16 20 21 19 19 20 20 22 23 22 19 17 17 20 20 19 20 21 22 22 21 20 21 22 22 21 20 20 18 17 16 16 16 17
53 54 53 53 52 52 51 50 51 53 53 52 50 50 51 51 50 48 45 44 45 47 49 50 50 50 50 49 48 47 46 46 44 41 38 36 33 28 24 26 27 25 24 23 21 18 16 16 16 16 16 16 17 21 21 18 19 20 19 20 19 17 16 15 17 18 17 18 19 20 21 21 21 21 22 21 19 19 18 17 17 17 17 17 17 17
53 54 52 52 52 51 50 50 51 53 52 51 49 50 50 50 49 47 45 44 45 48 50 51 51 51 51 50 49 49 48 46 43 40 38 35 31 27 25 27 27 25 24 23 20 17 16 17 17 16 16 16 17 20 19 18 19 18 17 18 17 16 16 16 18 18 16 17 18 19 19 20 22 23 21 17 15 16 15 14 16 16 16 17 17 16
54 53 53 52 51 50 51 51 52 52 52 51 49 49 49 48 48 47 45 45 46 49 50 50 50 50 51 50 49 48 45 42 41 39 37 33 30 27 27 29 27 25 25 23 19 17 17 18 17 16 16 16 16 18 18 18 18 17 17 19 18 17 17 18 19 19 17 17 19 18 18 19 21 21 19 17 17 16 14 14 16 17 17 18 18 17
53 53 53 52 51 52 51 51 51 52 52 51 50 49 48 47 47 45 44 46 48 49 50 49 49 50 51 48 47 46 43 41 40 37 35 31 27 27 27 28 27 25 25 22 19 17 18 19 18 17 17 17 17 18 19 19 18 18 18 18 18 17 17 18 19 19 17 18 19 18 19 20 19 19 20 19 18 15 14 15 16 17 18 18 17 15
53 52 52 52 52 52 51 51 51 52 53 52 51 50 49 48 47 46 46 47 48 50 51 49 49 51 50 46 45 46 44 42 39 36 33 29 27 27 27 26 26 25 24 21 19 19 19 20 20 20 19 19 19 19 20 20 18 18 18 18 17 17 18 18 18 17 17 18 19 19 19 19 19 19 19 18 17 16 16 16 16 17 18 17 15 14
52 52 53 53 52 52 51 51 52 53 53 52 52 52 51 50 50 48 48 48 49 51 50 49 49 50 47 44 45 45 43 41 38 34 32 30 29 28 26 26 26 26 24 23 21 21 21 22 22 21 21 20 20 20 21 20 18 17 18 18 17 16 17 17 16 17 17 18 20 20 18 18 19 19 16 16 16 16 15 16 17 17 17 15 14 13
50 51 52 52 52 51 50 49 49 49 50 51 51 51 51 51 50 49 49 49 50 52 50 49 49 48 45 44 43 43 42 40 38 35 33 33 33 32 31 31 30 29 28 26 23 22 22 24 24 23 23 22 21 21 21 20 18 17 19 19 18 17 17 16 16 17 18 19 19 17 17 19 19 17 15 16 17 16 17 18 17 16 15 14 14 14
47 47 48 49 50 50 49 49 49 48 48 49 50 50 50 48 47 46 47 48 50 52 50 49 48 46 44 43 41 41 42 40 38 37 36 36 36 35 35 35 34 32 29 26 23 22 23 25 26 26 24 23 22 22 21 20 19 18 19 20 20 18 16 16 17 16 17 17 16 15 17 20 19 16 16 17 17 18 18 17 15 14 14 15 15 15
46 45 46 48 49 49 48 48 48 48 47 48 49 50 48 47 46 44 45 47 49 51 49 48 47 46 44 43 41 41 41 40 39 37 36 36 35 36 36 35 34 31 27 23 22 22 24 26 28 28 26 24 23 23 22 21 20 19 20 21 21 18 15 16 18 15 15 16 15 15 17 18 18 17 17 17 17 17 16 15 15 15 15 15 15 14
44 43 45 46 46 47 47 46 46 46 46 47 48 49 48 48 47 45 45 48 49 50 49 47 47 46 44 42 40 39 40 40 39 36 36 36 36 35 35 34 32 28 25 23 22 23 25 26 28 28 26 25 24 24 23 22 21 21 21 21 21 19 16 16 17 15 15 16 14 15 16 16 18 18 17 17 17 16 16 15 15 16 16 15 14 12
43 41 42 44 44 43 44 46 46 45 45 45 46 47 48 48 48 47 47 48 48 49 48 46 46 45 44 42 38 37 39 39 38 37 37 37 36 35 34 33 31 28 26 24 23 23 24 26 28 27 26 25 24 24 23 22 21 21 21 21 21 20 16 16 16 15 15 16 14 16 17 17 17 17 16 17 17 16 16 15 15 16 16 15 13 12
42 40 40 42 41 41 43 45 46 46 47 46 46 46 46 47 47 47 47 48 48 48 47 45 44 44 44 41 38 36 37 38 37 37 37 36 36 35 34 32 30 27 25 23 23 23 25 26 28 27 26 25 24 24 23 22 21 21 20 20 21 20 17 16 16 16 16 17 17 17 17 16 16 16 16 17 17 17 16 16 16 17 16 15 14 13
41 39 38 39 39 40 43 46 45 44 46 46 47 48 48 47 47 46 46 46 46 46 46 44 43 43 43 41 39 37 36 36 37 36 35 35 35 34 34 32 30 27 25 24 23 24 26 27 28 28 27 26 25 24 23 22 21 21 20 20 21 21 18 17 17 17 17 19 18 17 16 15 16 16 17 18 18 17 17 17 17 17 16 15 14 13
40 38 37 37 39 40 42 43 41 40 42 42 43 46 49 49 47 45 45 45 45 45 45 43 41 41 40 40 39 37 34 34 35 35 34 34 34 35 34 32 30 27 26 24 25 27 28 27 28 28 27 26 26 25 23 22 22 21 20 20 21 21 19 18 18 18 17 18 17 17 16 15 15 16 18 18 18 18 18 17 17 17 17 16 15 15
39 38 36 36 37 37 37 37 38 38 38 39 40 42 46 48 47 46 45 45 45 45 44 43 41 40 39 37 37 36 34 32 33 34 34 34 35 35 34 31 29 27 25 26 29 31 30 28 27 28 27 27 26 26 24 23 23 22 21 20 21 21 20 19 18 18 17 17 17 16 16 16 16 17 18 18 18 18 18 18 18 17 17 17 17 16
37 36 35 34 34 32 31 33 35 37 38 39 40 41 43 45 45 45 45 44 44 44 43 42 41 39 37 35 34 35 34 32 33 35 35 36 36 35 32 30 27 26 26 28 30 31 30 28 27 25 25 26 26 26 25 24 24 23 21 21 22 22 21 20 19 18 17 17 17 16 16 17 18 19 19 19 19 19 19 18 18 18 18 18 18 16
34 33 33 32 31 30 30 31 35 39 40 41 41 42 42 43 44 45 45 44 43 43 42 41 40 38 36 33 32 33 32 31 33 34 35 36 36 34 31 29 27 27 28 29 29 30 29 26 23 21 21 22 23 24 24 24 24 23 22 22 23 22 21 20 19 18 17 17 17 17 18 19 20 20 20 21 21 20 20 19 19 20 19 18 18 17
30 30 31 30 30 31 31 34 38 41 42 43 42 42 43 44 45 45 44 44 43 43 41 40 39 35 32 31 30 30 30 30 31 32 34 36 35 32 30 29 28 27 28 27 26 26 25 23 20 18 19 19 21 22 22 23 24 24 23 23 23 22 22 21 20 19 18 18 18 18 19 20 21 22 22 22 22 21 20 20 20 20 19 19 19 19
28 28 30 29 28 29 29 32 36 38 40 41 42 43 43 43 44 45 44 44 43 41 40 39 36 32 29 27 25 26 27 26 28 31 32 34 33 31 30 29 27 27 27 25 24 24 23 20 17 16 17 19 21 21 22 23 24 24 23 23 23 22 22 21 21 20 19 19 19 20 21 22 23 23 24 23 23 22 21 21 21 20 20 20 21 21
28 26 28 28 26 27 27 28 30 32 35 36 38 40 41 42 43 44 44 42 40 39 39 36 33 30 27 23 18 19 22 23 25 28 30 31 30 30 30 28 27 27 26 25 24 23 21 19 17 17 17 20 22 22 21 22 23 22 22 23 23 22 22 22 21 21 20 19 20 21 22 23 24 24 24 24 23 23 22 22 21 21 22 22 23 24
27 25 25 26 25 24 25 25 28 31 34 35 36 37 39 41 43 43 42 41 39 40 38 34 31 29 26 21 18 17 20 22 23 26 28 29 30 31 31 29 28 28 26 24 24 23 22 22 22 21 20 22 23 22 21 22 22 22 22 22 22 22 22 22 22 21 20 19 19 21 22 23 24 25 25 25 24 24 24 23 23 23 24 25 25 26
26 23 22 24 24 24 24 25 28 30 33 35 36 37 37 39 40 41 40 40 40 40 38 34 32 30 27 23 21 21 22 23 24 24 26 28 30 31 30 30 30 29 26 25 26 27 28 28 27 26 24 25 25 24 23 23 23 22 22 22 23 23 23 23 22 21 21 20 20 21 22 23 24 25 25 26 26 26 25 25 25 25 26 27 27 27
24 20 19 21 23 24 24 26 27 28 29 31 34 36 38 38 39 39 39 39 40 39 36 34 35 34 31 26 22 22 23 24 25 24 25 26 27 28 29 30 29 27 26 26 28 29 29 30 30 29 27 27 28 27 25 25 24 24 23 23 24 23 23 23 22 22 22 22 22 22 21 22 24 25 26 27 28 28 28 27 27 27 28 28 29 28
22 19 18 19 21 23 24 25 24 24 26 29 33 36 38 39 40 39 39 39 39 38 36 36 37 35 30 25 23 22 23 24 25 25 24 24 24 24 24 23 22 23 26 27 27 26 26 28 29 30 30 30 30 29 28 26 26 26 25 25 25 24 23 23 23 23 23 23 22 22 22 23 24 25 27 28 29 30 30 29 29 29 30 30 30 29
21 19 19 19 19 21 22 22 21 23 26 29 32 34 36 38 39 38 38 38 37 37 37 36 34 30 25 24 24 23 22 22 23 23 22 20 19 18 17 17 20 24 26 25 24 24 25 26 28 30 31 31 31 30 30 29 28 28 28 28 27 25 24 23 23 23 23 23 23 23 23 24 25 26 27 29 30 32 32 32 31 31 31 31 31 30
22 20 18 17 18 19 20 20 22 25 27 26 28 32 34 36 36 36 36 36 35 36 36 34 31 28 25 24 24 22 22 21 21 21 21 19 16 15 17 21 23 24 23 22 22 23 24 25 27 29 29 30 31 31 31 30 29 29 29 29 28 26 24 23 23 23 23 24 24 24 24 25 26 27 28 29 31 32 33 33 33 33 33 33 32 31
22 19 15 14 16 18 18 21 24 26 25 24 26 30 33 34 34 33 32 33 34 35 35 35 33 32 28 25 24 23 22 22 22 22 21 19 17 19 22 23 23 21 20 20 21 21 22 23 25 27 28 28 29 29 29 29 29 29 29 28 27 25 24 23 23 23 24 25 25 25 26 27 28 29 30 31 31 32 33 33 34 34 34 34 33 33
18 16 14 14 17 19 20 23 25 25 23 24 26 29 31 33 34 33 32 33 33 34 35 35 35 35 32 27 23 22 21 21 21 20 19 19 21 23 23 20 18 19 19 19 19 20 21 22 24 25 26 26 26 26 27 27 27 28 27 27 26 25 24 24 23 23 24 25 26 28 29 31 31 32 33 33 30 30 31 33 34 35 35 34 34 33
17 15 14 15 17 20 22 23 24 23 23 24 26 27 30 32 33 33 33 32 32 33 33 33 33 34 34 30 25 21 19 19 19 18 19 22 23 22 19 17 17 17 17 17 17 17 17 17 18 19 21 22 23 24 24 25 25 25 25 25 25 25 25 25 24 24 25 26 28 30 32 34 36 36 35 34 31 29 30 33 34 35 34 34 33 33
17 16 14 16 18 20 22 23 24 23 23 24 25 27 29 31 31 31 31 29 30 30 30 31 31 30 29 28 25 23 21 20 20 21 23 24 21 16 14 15 17 18 17 17 16 15 13 12 13 14 16 18 19 21 22 23 23 23 23 23 24 24 25 25 25 25 26 27 29 31 31 33 37 40 39 38 35 31 31 34 35 35 34 33 33 33
16 17 15 15 19 20 22 24 24 24 23 23 23 25 27 29 30 30 30 29 29 29 27 27 27 26 24 24 24 24 24 25 24 23 23 21 18 15 15 17 19 20 19 18 17 16 16 15 14 14 15 16 18 19 20 20 20 20 20 20 22 23 24 24 25 26 27 28 29 31 31 32 34 38 40 40 38 37 38 38 37 36 35 34 32 32
13 17 16 15 18 20 21 24 25 23 22 22 22 22 24 27 29 30 32 30 27 26 26 24 23 24 25 25 25 25 27 28 26 21 19 20 20 20 20 20 20 22 21 19 19 20 20 19 18 17 18 19 20 20 21 20 20 20 21 21 22 23 24 25 26 27 28 28 29 32 34 33 33 34 37 38 38 39 42 42 39 38 36 33 30 30
12 14 15 15 17 19 21 23 24 23 22 21 20 20 22 26 30 31 30 28 25 23 23 21 20 22 25 26 26 25 26 27 25 20 18 20 23 23 22 21 22 23 24 23 23 24 23 23 23 22 21 21 21 22 23 24 24 25 25 25 25 26 26 27 28 28 29 30 31 33 34 35 34 34 34 35 35 36 38 38 37 35 32 30 30 31
14 13 14 15 15 17 20 23 23 22 22 21 20 19 21 25 28 29 27 26 24 22 20 19 19 20 23 26 27 27 26 24 23 22 21 23 24 25 24 23 23 24 25 25 25 26 26 25 25 24 23 22 23 24 26 27 29 30 31 31 30 30 30 30 31 31 32 33 34 35 36 36 37 36 35 34 34 34 35 36 36 35 33 34 35 34
17 16 14 15 16 17 20 23 23 22 22 23 21 20 22 24 25 25 26 26 25 23 21 20 20 20 21 23 26 28 28 27 25 26 27 28 28 27 27 27 26 26 26 27 28 28 28 27 25 24 24 25 26 27 28 29 31 33 34 34 35 34 34 34 34 35 35 36 37 38 38 39 39 38 38 37 36 35 34 35 36 37 39 39 35 33
18 18 16 15 17 18 18 20 21 22 22 23 23 23 23 24 24 25 25 26 25 25 23 22 21 21 21 22 24 26 28 29 29 29 30 31 31 30 30 30 30 29 30 30 30 30 29 28 27 28 28 29 30 31 32 34 35 36 37 38 39 39 38 39 39 39 38 38 39 39 40 40 40 40 39 39 38 37 35 35 36 37 38 35 30 28
18 19 18 17 18 19 19 18 19 21 22 22 23 24 24 25 26 26 25 25 25 25 25 24 24 23 24 24 24 25 25 27 29 30 31 31 31 32 32 32 32 32 32 30 30 30 30 30 30 31 31 32 34 35 37 38 39 40 41 42 42 42 41 41 42 41 40 40 40 40 41 41 41 41 41 40 39 38 38 38 37 36 35 34 32 29
15 19 20 20 19 19 20 19 17 19 21 22 23 24 26 27 28 28 27 26 25 24 25 25 25 26 26 26 26 26 26 26 27 28 30 30 31 32 32 33 33 32 31 29 29 30 32 32 32 32 32 33 35 36 38 40 41 41 42 42 42 41 41 40 41 41 41 41 41 41 41 42 42 42 41 41 40 39 40 40 39 37 36 35 34 32
13 16 20 22 21 20 20 20 18 18 20 21 22 24 26 28 30 31 30 29 28 27 26 26 26 27 28 29 29 29 28 28 28 28 29 30 30 31 32 32 32 32 31 31 32 33 35 35 35 35 35 36 37 38 39 40 40 39 39 38 38 37 37 37 38 39 40 41 41 42 42 42 42 42 42 41 41 41 41 41 40 38 37 36 34 33
14 15 17 20 21 21 21 21 20 20 20 21 22 23 25 28 31 32 33 32 32 31 30 29 29 29 29 30 31 31 31 31 31 31 31 32 32 33 33 34 34 34 34 34 34 36 37 38 38 39 39 39 39 39 39 38 37 36 35 34 33 33 33 33 34 35 37 38 40 41 42 43 43 43 42 41 41 40 40 40 39 38 37 36 35 35
14 14 16 18 19 22 22 21 20 21 21 22 23 24 25 28 31 33 34 33 33 32 32 32 32 32 32 32 32 33 34 34 34 35 35 35 36 36 36 36 37 37 38 38 38 39 40 41 42 41 39 37 37 37 36 35 34 33 32 32 31 31 31 31 31 33 34 35 36 38 40 41 42 42 42 41 40 39 39 39 39 39 38 37 37 37
16 15 16 17 18 20 22 21 21 21 22 23 24 25 26 29 30 31 31 31 31 30 30 30 31 32 33 33 34 34 35 36 37 38 38 38 39 39 39 39 40 40 41 41 42 42 42 42 41 38 36 35 35 35 34 34 33 32 32 31 31 31 31 31 31 32 33 34 34 35 37 38 40 41 41 40 39 39 39 39 39 39 39 38 37 37
18 17 17 17 18 19 20 20 21 20 21 23 24 25 25 27 28 28 28 28 28 28 29 29 30 31 31 32 32 33 34 36 37 39 40 40 41 42 42 43 43 43 43 43 42 41 41 39 38 36 35 35 35 34 33 33 32 31 31 31 30 30 30 30 30 31 31 32 33 34 35 36 38 39 39 38 37 38 37 37 37 38 38 37 37 37
Wind_Direction
217 216 217 219 220 222 223 223 223 223 223 223 223 224 226 228 229 230 229 228 226 226 226 226 226 229 229 228 228 229 230 231 232 234 235 236 235 235 236 236 236 236 231 228 231 229 224 223 222 221 228 237 243 248 247 241 238 241 242 248 255 251 240 244 252 247 246 253 257 255 253 253 254 257 263 267 270 271 267 264 264 266 267 269 270 270
216 216 216 217 218 219 220 219 219 220 221 222 222 223 225 226 227 228 227 227 226 225 226 226 226 228 228 228 227 228 228 229 230 232 233 234 233 233 234 233 232 231 229 230 231 224 220 223 224 227 233 239 245 251 251 245 239 242 247 256 260 251 241 247 251 252 257 259 259 257 254 253 255 258 262 264 268 270 266 263 265 268 270 271 269 267
214 214 213 214 214 215 216 216 217 218 220 220 220 222 223 224 226 226 224 223 224 224 224 225 226 227 227 227 226 227 227 227 227 227 229 230 229 231 232 232 229 227 229 232 230 222 221 226 232 237 240 245 250 253 254 248 233 234 244 256 258 249 243 246 248 253 259 253 250 255 255 255 256 258 261 263 268 271 268 264 266 269 269 267 264 260
213 211 210 211 212 212 213 213 214 215 218 219 218 220 222 223 224 225 223 220 221 222 222 223 225 225 225 225 225 224 224 224 222 222 223 224 225 227 228 226 221 223 229 232 229 226 226 228 234 240 244 249 251 252 254 246 233 234 244 248 250 246 242 244 247 250 248 243 248 258 260 258 254 255 260 265 270 273 270 265 264 264 264 263 260 254
212 210 209 208 209 210 210 211 211 213 216 217 217 219 221 221 222 224 222 218 219 221 221 221 223 224 223 223 223 222 223 222 220 220 220 221 222 224 225 220 218 223 228 229 227 228 229 231 236 241 247 248 248 254 255 246 238 238 243 244 247 248 247 248 247 245 242 246 256 263 261 257 254 257 264 268 270 271 267 261 259 260 258 259 257 249
209 209 208 207 207 208 209 209 209 211 214 215 215 216 218 219 220 222 219 215 216 219 219 219 221 222 221 222 222 222 222 222 220 219 219 221 222 223 221 216 218 224 225 225 226 228 231 234 239 241 244 244 246 252 250 243 241 240 239 241 245 246 248 247 242 240 244 252 260 261 257 254 256 263 264 262 264 266 261 257 258 257 253 251 249 243
206 206 205 205 206 207 208 208 208 209 212 214 213 214 216 218 218 219 217 213 213 217 218 219 221 221 221 221 222 221 222 222 221 219 219 220 221 220 217 213 219 223 222 223 226 229 231 232 234 237 240 242 245 248 243 239 241 240 236 235 238 241 243 241 239 241 248 255 259 257 255 254 256 259 254 251 257 262 260 259 257 252 246 243 243 243
204 204 202 202 204 205 206 207 207 208 210 211 211 213 215 216 217 217 214 211 212 215 216 217 220 221 221 222 222 221 222 221 220 219 218 218 219 218 214 213 219 220 220 222 226 229 230 230 231 234 237 239 245 246 241 240 244 244 241 238 237 240 239 236 240 245 251 257 257 255 256 254 250 251 250 250 257 262 262 262 254 242 239 241 243 246
202 203 201 200 201 202 203 205 206 207 209 209 209 212 213 213 215 214 211 208 210 213 215 215 216 219 220 220 221 221 222 222 220 219 218 218 219 217 211 215 219 219 219 222 225 228 230 232 232 234 237 238 244 247 242 242 246 244 242 240 238 239 237 237 244 250 256 257 255 255 258 255 248 243 244 251 259 262 264 259 245 236 236 242 246 245
200 201 200 198 199 200 200 201 203 205 207 206 206 210 212 212 212 211 209 206 208 212 214 214 215 217 219 218 219 220 220 221 219 218 219 219 219 216 211 216 220 218 220 223 225 228 231 234 233 234 235 234 240 247 245 240 239 236 237 240 241 241 242 244 248 252 253 247 247 252 255 253 246 237 237 249 261 262 258 243 232 235 240 245 249 244
197 198 198 196 196 198 198 200 201 202 204 204 204 207 210 210 210 208 205 204 207 211 213 213 214 218 220 218 218 220 220 221 221 219 220 220 219 217 215 219 222 221 222 224 225 228 231 233 232 231 230 227 231 241 244 239 234 234 240 244 245 245 247 249 249 250 247 238 239 246 248 248 247 241 241 254 262 258 245 229 228 237 243 246 245 238
194 196 196 193 194 197 197 198 199 200 202 201 201 205 207 208 208 205 202 202 206 210 212 212 213 217 220 217 217 221 221 221 221 220 220 220 220 219 219 222 225 224 224 225 226 229 231 233 232 228 224 222 225 233 239 240 238 241 247 248 248 247 247 247 247 249 246 239 239 241 244 248 251 250 250 256 260 251 236 229 232 238 241 240 235 229
193 195 194 191 193 195 195 196 197 199 201 199 198 202 205 206 206 203 201 202 206 210 211 210 212 216 218 215 215 219 220 219 219 218 217 218 218 219 220 223 226 225 225 225 227 229 231 231 230 226 222 222 225 230 237 241 243 247 250 249 246 242 240 241 243 245 243 241 241 241 244 249 252 253 253 254 252 245 237 236 239 241 239 232 225 223
192 193 192 190 192 193 193 195 196 197 199 198 198 202 205 206 206 204 202 204 207 211 210 208 212 215 216 215 214 216 218 218 217 215 213 214 215 216 215 217 219 220 221 224 226 228 230 230 229 226 223 223 227 232 238 243 246 249 249 247 242 237 236 239 243 245 243 241 242 243 245 249 251 252 250 246 244 243 242 244 243 239 230 223 220 222
191 192 192 189 190 191 191 193 195 196 198 198 197 202 206 208 208 206 203 203 206 211 210 207 211 214 215 215 214 214 216 216 214 212 210 211 212 212 209 207 210 215 219 223 226 228 229 229 228 226 223 224 229 234 238 243 246 246 246 245 241 235 235 239 243 245 244 240 238 240 243 245 246 245 241 240 242 242 243 243 237 226 217 216 220 225
188 191 191 189 189 191 190 192 194 196 198 198 196 199 205 207 209 207 204 204 207 211 210 207 210 214 214 214 213 212 214 214 212 209 208 209 211 213 213 210 212 217 222 226 228 230 230 228 227 225 224 226 232 235 239 243 244 243 243 245 244 239 238 244 244 241 239 234 229 232 238 240 239 239 239 239 239 240 240 234 221 212 213 218 224 229
186 189 191 190 191 191 191 193 194 195 196 197 196 199 202 205 207 206 205 206 208 211 212 208 210 214 216 216 212 211 212 212 211 208 208 209 211 214 215 214 217 222 226 229 231 232 231 228 225 224 224 227 232 235 238 240 241 241 242 245 247 242 241 247 245 240 234 226 221 227 236 237 235 238 240 238 238 238 232 221 212 213 219 224 229 231
185 188 190 190 191 192 192 193 195 195 195 195 195 197 200 203 204 203 204 207 208 211 213 210 210 214 217 217 213 210 211 211 209 207 207 208 211 214 215 217 221 225 226 227 229 232 234 230 224 222 224 228 231 232 235 237 240 242 244 247 248 243 239 239 240 241 232 221 220 230 238 239 236 238 239 236 236 232 221 214 215 221 226 230 231 230
184 187 188 189 191 192 194 194 193 194 194 194 195 196 199 202 203 202 203 206 208 211 213 211 211 214 217 217 214 210 211 211 209 207 206 207 209 211 214 219 223 224 225 228 230 232 233 229 224 223 226 229 230 232 236 239 242 245 246 248 248 245 242 237 235 239 232 227 234 239 239 240 237 237 237 232 229 222 216 217 223 229 234 233 230 230
184 186 187 189 190 191 194 195 193 192 192 193 193 194 198 203 204 204 204 206 207 210 214 212 211 214 217 218 216 212 211 210 209 208 207 207 209 210 214 220 224 224 225 230 234 232 228 226 224 224 227 228 229 233 237 240 244 246 247 247 246 245 245 240 233 234 236 241 246 240 235 236 235 233 230 224 220 218 220 225 231 235 236 231 229 233
185 185 185 188 190 190 193 194 193 193 194 193 192 191 195 202 205 205 205 207 208 210 213 214 213 214 217 219 219 217 212 209 209 208 207 208 208 209 214 220 224 224 225 230 232 228 225 225 225 225 226 226 228 233 237 241 244 247 247 245 244 243 242 240 236 236 241 247 248 240 233 233 231 226 221 218 218 222 227 233 236 237 233 230 232 239
185 186 185 187 189 190 193 193 192 194 195 195 195 192 193 198 203 204 206 207 209 211 213 213 213 214 217 219 221 220 214 209 209 208 207 207 207 209 213 219 223 224 225 228 229 226 225 227 227 225 225 226 230 235 238 241 244 247 246 242 242 242 240 239 238 240 247 253 253 245 236 231 227 222 218 218 223 229 234 239 240 236 232 232 238 243
185 186 186 187 188 189 191 191 191 193 195 196 197 197 197 198 200 203 205 207 209 212 213 214 214 215 217 218 219 221 215 208 207 207 206 205 205 207 212 216 219 222 223 227 228 227 228 231 229 227 226 228 233 237 239 242 244 245 243 239 239 240 239 238 238 241 248 255 255 247 237 231 227 223 222 225 230 235 240 242 239 235 234 238 243 247
185 186 187 188 187 187 188 189 190 192 193 194 195 196 199 201 203 203 205 207 211 213 214 215 216 217 219 219 219 220 215 207 206 207 206 204 205 207 209 211 214 218 223 229 230 228 228 230 230 229 231 233 237 240 241 243 245 244 241 237 235 237 238 238 239 241 247 252 251 244 237 233 229 228 229 232 236 240 243 243 238 235 238 244 248 253
184 187 189 188 186 185 185 187 190 191 192 192 193 194 197 201 206 207 206 206 209 213 215 217 218 219 222 221 219 219 214 206 206 208 206 205 206 205 205 207 210 217 225 230 230 226 224 225 227 229 232 236 239 241 242 244 245 245 240 235 234 234 235 236 238 240 244 248 247 241 237 235 234 234 236 239 242 244 245 243 239 238 243 248 252 257
183 187 190 190 189 188 188 189 191 192 192 191 192 194 196 200 205 208 208 207 208 210 213 216 219 220 223 224 221 218 213 205 205 207 206 206 207 205 203 205 210 219 226 227 224 219 215 215 218 222 227 232 236 239 242 245 247 246 240 235 233 233 233 234 236 240 241 242 242 239 238 238 238 239 241 244 246 247 247 244 240 242 247 253 256 260
184 188 191 191 190 190 191 195 195 195 194 193 192 194 196 200 204 207 209 209 209 210 212 214 218 219 220 223 222 218 212 204 202 205 206 207 207 205 204 206 212 218 219 217 214 209 205 204 210 221 229 233 235 238 242 246 247 245 240 235 233 233 232 233 236 239 241 240 239 237 237 239 241 243 245 247 248 248 248 245 244 246 251 256 259 263
185 189 192 192 192 193 194 196 198 197 196 195 195 196 197 200 204 206 208 209 209 212 213 213 215 216 216 215 213 211 206 200 198 201 203 205 205 205 206 207 209 211 210 209 209 205 205 210 218 229 239 241 239 238 241 244 245 244 240 236 234 234 233 234 236 239 241 240 239 238 239 241 243 245 248 249 249 249 249 248 248 250 254 258 261 265
186 191 194 196 198 198 196 196 197 197 197 196 197 199 200 201 204 206 207 208 209 211 213 211 211 211 207 199 190 189 190 188 191 196 199 201 202 204 205 204 204 207 207 210 214 217 225 233 235 236 242 245 242 238 239 242 244 245 242 238 236 235 235 237 239 242 244 243 242 241 242 244 247 249 250 251 251 251 252 251 251 253 256 259 262 266
187 191 197 201 202 202 199 199 200 198 197 197 197 198 201 204 207 207 207 208 209 211 211 208 207 205 199 190 182 183 184 180 183 192 196 198 201 204 205 205 208 212 213 216 222 228 235 240 240 240 243 246 243 239 240 244 246 247 244 239 237 235 236 238 241 244 246 246 245 244 245 248 250 252 253 253 254 253 253 253 253 254 256 260 263 266
186 189 197 204 205 205 203 203 203 201 199 199 198 199 200 204 207 208 208 208 210 212 209 205 206 204 198 190 184 186 189 182 179 186 193 197 201 204 207 210 213 216 218 221 225 228 233 237 240 242 243 242 241 240 242 246 249 249 247 243 240 239 238 240 243 245 247 248 247 247 248 250 252 253 254 254 254 254 253 253 254 255 257 260 262 264
184 186 196 203 206 206 205 205 204 201 200 201 201 200 201 203 205 207 209 210 211 211 209 206 206 204 200 194 188 188 192 188 182 183 189 194 198 202 207 210 214 219 222 225 227 232 238 241 242 242 239 237 237 240 243 247 250 251 250 249 248 246 245 246 247 249 250 252 252 251 250 250 251 252 253 253 253 253 253 253 254 255 257 259 261 264
182 191 200 205 207 206 205 203 199 199 201 202 201 201 203 205 206 206 208 210 212 212 211 208 204 201 199 195 190 190 194 193 190 188 189 193 198 205 210 214 223 228 228 229 233 238 242 241 237 235 233 232 235 240 244 248 251 252 252 252 253 254 255 256 255 254 254 254 255 255 253 252 252 253 252 252 252 251 251 252 253 254 257 259 261 266
183 193 200 204 206 204 200 196 195 199 201 200 200 204 206 207 207 208 208 210 212 213 213 210 199 190 189 189 186 188 192 194 196 195 192 191 196 207 214 219 228 234 234 235 238 241 243 240 235 232 232 234 237 240 245 249 253 255 255 255 257 260 262 263 262 261 259 257 256 255 254 255 254 253 252 252 252 251 250 250 251 253 256 259 263 268
189 196 198 201 201 198 194 195 198 201 199 197 201 206 207 207 207 208 210 213 215 214 214 211 199 187 182 180 178 182 187 189 191 191 192 192 193 203 213 220 227 233 234 236 239 241 243 241 237 234 236 239 241 244 248 251 254 254 254 255 257 259 261 261 260 260 259 259 258 257 256 255 254 253 253 253 252 251 251 250 251 253 256 260 264 269
193 200 201 201 198 193 193 197 200 200 198 200 203 205 207 207 205 204 206 211 214 214 214 213 206 197 191 184 179 182 187 191 193 194 195 194 195 205 215 221 226 230 232 235 240 243 245 242 238 237 238 241 244 247 249 250 251 250 251 252 254 257 258 258 258 257 257 258 259 258 256 254 252 252 252 252 252 253 254 253 253 255 258 262 266 269
194 200 200 199 197 195 196 198 196 196 198 203 205 205 206 207 206 205 204 207 211 214 215 215 213 208 204 200 196 196 199 200 197 193 191 192 198 209 219 224 229 233 235 239 244 249 249 246 241 239 240 242 244 246 247 248 249 250 251 253 255 256 257 257 257 255 254 255 257 259 260 257 252 250 251 253 256 260 260 259 259 260 262 264 267 270
196 199 196 193 194 195 198 197 194 194 199 203 206 206 205 204 205 205 202 202 208 211 211 213 213 211 208 208 209 210 209 204 198 193 192 194 200 210 219 226 230 231 234 240 245 243 234 229 232 237 241 244 246 247 247 248 250 252 254 255 256 257 257 257 256 254 254 256 258 263 266 263 256 252 253 256 258 262 266 264 262 263 264 266 268 269
198 199 199 197 195 196 199 198 195 195 198 203 206 207 205 202 202 202 201 201 204 205 206 209 209 205 202 204 207 209 210 208 205 202 197 193 194 206 222 231 232 229 230 238 241 234 225 226 237 245 246 247 249 250 250 251 251 250 250 251 252 254 256 257 256 256 257 259 262 265 267 265 261 258 258 259 257 261 267 268 264 263 263 264 267 269
197 197 203 204 201 201 202 201 198 196 198 202 205 206 205 201 200 201 202 201 201 202 204 208 207 201 198 200 203 208 215 219 220 215 203 196 204 220 234 240 237 231 230 238 243 240 237 241 250 254 253 249 248 248 249 249 247 244 242 243 246 250 253 255 257 258 260 262 264 266 267 267 266 263 263 263 262 264 269 270 268 266 261 259 265 271
202 194 197 202 204 204 205 205 202 198 199 203 204 204 202 201 202 204 204 202 200 200 202 207 209 205 200 201 204 210 219 228 232 229 216 212 222 235 243 246 243 235 232 239 247 250 250 251 254 255 253 250 249 248 248 248 248 246 245 245 248 252 255 257 258 260 262 263 264 265 266 267 267 266 267 268 267 270 273 273 273 272 266 263 270 275
219 207 197 198 203 202 202 206 205 201 201 205 205 203 202 203 206 208 207 204 201 198 197 201 206 208 208 207 208 212 216 222 228 230 227 228 234 241 246 250 250 243 237 239 248 254 255 254 255 255 251 248 249 250 251 251 251 250 249 249 251 254 258 260 260 261 263 264 264 265 266 266 267 268 269 269 268 269 273 274 275 276 273 272 275 275
226 222 212 208 209 204 201 203 204 203 204 206 205 204 205 205 206 209 211 209 206 201 200 201 203 206 211 213 215 217 218 219 221 225 230 236 240 243 247 251 253 250 247 248 254 256 253 252 253 253 250 249 249 251 252 253 253 252 253 254 254 257 260 263 262 262 263 264 264 265 265 265 266 266 267 268 270 271 272 274 276 277 276 274 274 272
225 225 222 219 219 215 208 203 202 202 205 207 206 206 207 207 207 209 213 215 214 211 210 210 209 209 211 214 217 220 223 224 226 229 234 239 243 246 249 251 253 256 256 257 258 254 248 248 250 250 249 249 250 250 250 251 253 254 255 256 257 259 262 264 264 263 264 263 263 263 263 263 264 265 266 269 272 274 276 277 279 280 278 275 276 275
224 226 225 222 221 221 219 213 205 201 204 207 207 208 209 210 210 211 214 215 217 218 218 218 217 217 217 217 218 219 222 225 230 234 238 242 245 248 250 253 255 257 257 256 254 249 247 250 253 253 252 253 253 253 253 253 254 256 257 258 259 260 262 262 262 262 262 261 261 262 262 262 263 265 268 269 272 275 277 278 279 279 278 279 282 279
219 225 227 224 220 220 222 220 212 204 203 207 210 210 211 212 213 214 215 215 216 218 219 220 220 220 221 223 222 221 221 223 226 232 237 241 244 248 251 254 256 256 255 253 251 248 249 254 259 260 260 259 258 258 257 257 258 259 261 262 263 263 263 261 261 261 260 260 260 260 261 263 264 266 268 270 272 274 275 276 278 277 278 281 280 274
207 217 224 225 223 222 223 222 218 211 205 206 210 213 214 215 217 218 218 218 218 219 219 220 221 222 223 225 226 226 226 226 227 230 234 240 244 248 252 255 257 257 256 254 252 251 253 258 264 268 269 267 264 263 262 261 261 262 263 264 265 264 264 262 261 260 259 259 259 259 261 263 264 265 267 269 271 273 274 276 276 277 279 280 276 272
203 209 216 221 224 223 222 221 222 219 213 210 211 213 214 217 219 220 222 223 223 225 225 225 225 225 226 228 229 230 231 232 233 234 237 241 244 248 251 254 256 258 259 258 256 256 258 262 268 273 273 270 266 264 263 262 262 263 263 264 264 264 264 263 262 261 260 259 258 259 260 261 263 265 266 268 270 272 273 274 274 276 277 276 273 274
211 212 214 219 223 223 222 222 223 223 222 218 215 215 216 218 217 218 221 223 225 227 229 230 231 231 232 233 234 234 235 236 237 238 240 242 244 247 250 253 256 258 260 262 262 263 265 269 272 274 272 268 265 264 263 262 262 264 264 265 265 265 264 263 262 262 261 261 260 260 260 261 263 265 266 268 269 271 272 273 275 276 275 273 273 275
219 218 218 222 224 223 223 224 224 225 225 224 221 218 217 217 216 215 216 218 222 226 229 232 235 237 239 240 241 241 241 240 240 241 243 244 246 248 251 254 256 258 261 264 266 268 270 271 272 271 269 267 265 264 263 263 265 267 267 267 266 265 264 264 263 263 263 263 263 262 262 262 264 265 266 268 269 270 272 274 275 275 274 272 274 276
223 220 220 224 225 224 222 220 220 224 227 225 223 221 218 215 214 213 214 216 220 225 230 234 237 240 241 243 243 243 243 243 243 244 246 247 249 251 253 255 257 259 262 264 265 267 268 268 268 267 266 266 265 264 265 266 267 268 268 267 266 265 265 265 264 264 264 264 263 263 263 263 264 265 266 268 269 270 271 273 274 274 271 270 273 277